www.pogodaiklimat.ru

Погода и климат >> Архив погоды >> Индия >> Pune


ПОГОДА в Pune

  • Прогноз погоды в Pune
  • Монитор погоды в Pune
  • Климат города

АРХИВ ПОГОДЫ в Pune

Время (UTC), дата Ветер
(напр.,м/с)
 
Видим.   Явления Облачность Т
(С)
Тd
(С)
f
(%)
Тe
(С)
Тes
(С)
Комфортность P
(гПа)
Po
(гПа)
Тmin
(С)
Tmax
(С)
R
(мм)
R24
(мм)
S
(см)
09 6.12 штиль 0 10 км 1/1 800 м
[Sc]
+31.8 +16.5 40 +35 +46 очень
душно
1007.2 946.9
12 6.12 З 1 10 км 6/6 800 м
[Sc]
+30.0 +16.4 44 +33 +33 душно 1007.4 946.7 +32.4
15 6.12 штиль 0 4000 м 5/1 800 м
[Sc Ci fib]
+24.6 +17.2 63 +28 +28 душно 1011.3 949.2
18 6.12 штиль 0 4000 м 5/3 800 м
[Sc Ci fib]
+21.0 +17.2 79 +25 +25 комфорт 1013.0 950.1
21 6.12 штиль 0 4000 м 5/3 800 м
[Sc Ci fib]
+19.0 +16.4 85 +20 +20 1012.5 949.2
00 7.12 штиль 0 4000 м 4/1 800 м
[Sc Ci fib]
+17.8 +15.5 86 +18 +18 1012.8 949.2
03 7.12 штиль 0 4000 м ясно +20.0 +17.8 87 +23 +25 комфорт 1013.8 950.7 +16.6
06 7.12 штиль 0 10 км ясно +28.0 +14.6 44 +30 +46 жарко 1011.6 950.2
09 7.12 В 1 10 км 3/3 600 м
[Sc]
+31.2 +15.3 38 +34 +42 душно 1007.6 947.2
12 7.12 З 1 10 км 4/4 870 м
[Sc]
+29.8 +16.6 45 +33 +33 душно 1008.6 947.7 +32.1
15 7.12 З 1 4000 м 3/3 800 м
[Sc]
+25.2 +18.5 66 +30 +30 душно 1011.5 949.7
18 7.12 штиль 0 4000 м ясно +20.6 +17.8 84 +24 +24 комфорт 1012.9 950.0
21 7.12 штиль 0 4000 м ясно +18.6 +16.7 89 +19 +19 1012.5 949.2
00 8.12 штиль 0 4000 м ясно +16.8 +15.8 94 +17 +17 1013.2 949.4
03 8.12 штиль 0 4000 м мгла ясно +20.8 +17.7 82 +24 +27 комфорт 1014.7 951.7 +16.1
06 8.12 штиль 0 4000 м ясно +28.2 +17.2 51 +32 +47 душно 1012.8 951.5
09 8.12 штиль 0 10 км 5/4 600 м
[Sc Ci fib]
+29.8 +16.8 46 +33 +41 душно 1010.9 949.7
12 8.12 З 1 10 км 3/3 800 м
[Cu Sc]
+28.6 +15.0 44 +31 +32 жарко 1009.7 948.6 +32.4
15 8.12 штиль 0 4000 м ясно +23.6 +15.6 61 +27 +27 жарко 1012.7 950.5
18 8.12 штиль 0 4000 м 3/0
[Ci fib]
+18.6 +14.6 78 +19 +19 1013.9 950.6
21 8.12 штиль 0 4000 м 3/0
[Ci fib]
+17.2 +15.2 88 +17 +17 1013.4 949.8
00 9.12 штиль 0 4000 м 3/0
[Ci fib]
+16.8 +14.8 88 +17 +17 1013.2 949.4
03 9.12 штиль 0 10 км ясно +18.0 +16.1 89 +18 +21 1015.1 951.4 +15.0
06 9.12 штиль 0 10 км ясно +28.0 +14.6 44 +30 +46 жарко 1011.9 950.5
09 9.12 З 2 10 км 4/4 800 м
[Cu Sc]
+32.4 +13.6 32 +34 +39 очень
жарко
1007.5 947.3
12 9.12 З 1 10 км 3/1 800 м
[Sc Ci fib]
+28.4 +13.5 40 +30 +30 жарко 1008.4 947.3 +32.8
15 9.12 З 1 4000 м ясно +23.4 +13.9 55 +27 +27 душно 1011.4 949.3
18 9.12 штиль 0 4000 м 4/1 800 м
[Sc Ac trans]
+18.8 +14.1 74 +20 +20 1013.0 949.6
21 9.12 штиль 0 4000 м ясно +16.2 +14.2 88 +16 +16 1011.9 948.2
00 10.12 штиль 0 4000 м ясно +14.6 +13.6 94 +14 +14 1012.5 948.4
03 10.12 штиль 0 10 км ясно +16.4 +14.7 90 +16 +19 1014.3 950.5 +12.9
06 10.12 З 1 10 км ясно +26.6 +10.6 37 +27 +41 жарко 1012.1 950.5
09 10.12 З 1 10 км ясно +30.0 +2.4 17 +28 +38 жарко 1008.7 947.8
12 10.12 З 1 10 км ясно +26.8 +5.8 26 +26 +26 жарко 1009.3 947.8 +30.4
15 10.12 штиль 0 4000 м ясно +18.0 +10.1 60 +18 +18 1013.7 950.1
18 10.12 штиль 0 4000 м ясно +13.8 +8.9 72 +14 +14 1014.9 950.4
21 10.12 штиль 0 4000 м ясно +11.8 +9.5 86 +11 +11 1014.7 949.7
00 11.12 штиль 0 4000 м ясно +10.4 +9.6 95 +10 +10 1015.4 950.2
03 11.12 штиль 0 10 км ясно +15.6 +11.0 74 +15 +18 1016.3 952.2 +9.5
06 11.12 В 1 10 км ясно +25.2 +9.0 36 +26 +39 жарко 1014.2 952.3
09 11.12 штиль 0 10 км ясно +28.2 +8.6 29 +28 +40 жарко 1010.3 949.1
12 11.12 штиль 0 10 км ясно +27.6 +11.6 37 +29 +29 жарко 1010.0 948.7 +29.9
15 11.12 штиль 0 4000 м ясно +18.4 +11.0 62 +19 +19 1014.0 950.7
18 11.12 штиль 0 4000 м ясно +15.0 +10.7 75 +15 +15 1015.0 950.8
21 11.12 штиль 0 4000 м ясно +13.2 +11.4 89 +13 +13 1014.7 950.2
00 12.12 штиль 0 4000 м ясно +10.4 +8.9 90 +10 +10 1015.8 950.6
03 12.12 штиль 0 4000 м мгла ясно +16.2 +12.8 80 +16 +19 1016.8 952.9 +10.5
06 12.12 штиль 0 10 км ясно +25.8 +9.9 37 +27 +42 жарко 1014.3 952.4
09 12.12 З 1 10 км ясно +28.4 +9.0 30 +28 +40 жарко 1009.0 948.9
12 12.12 З 2 10 км ясно +27.0 +9.3 33 +27 +28 жарко 1010.5 949.0 +30.4
15 12.12 штиль 0 4000 м ясно +19.0 +12.5 66 +20 +20 1015.2 951.7
18 12.12 штиль 0 4000 м ясно +15.6 +12.1 80 +15 +15 1016.1 952.0
21 12.12 штиль 0 4000 м ясно +13.8 +10.9 83 +13 +13 1016.3 951.7
00 13.12 штиль 0 4000 м ясно +12.2 +11.1 93 +12 +12 1016.9 952.0
03 13.12 штиль 0 10 км ясно +15.8 +13.8 88 +16 +18 1018.5 954.2 +11.6
06 13.12 З 1 10 км ясно +25.2 +10.0 38 +26 +40 жарко 1015.5 953.5

 

Местоположение метеостанции Pune (Maharashtra, Индия): широта 18.53 долгота 73.85 высота над уровнем моря 559 м.

В архиве по умолчанию представлена погода в Pune за последнюю неделю. Архивные данные за месяц целиком и за предыдущие месяцы, начиная с января 2011 года, Вы можете получить, выбрав интересующий диапазон дат из раскрывающегося списка и нажав кнопку "Ввод!".


*Определитесь, кто Вы:
робот инопланетянин человек

Внимание! Время в таблицах - всемирное. Для получения местного времени необходимо прибавить поправку, которая в Pune равна 5.5 ч.

Смотрите также архив погоды в соседних городах и на ближайших метеорологических станциях:

Погода в Bhira (Maharashtra, Индия) (48 км)
Погода в Mahabaleshwar (Maharashtra, Индия) (69 км)
Погода в Matheran (Maharashtra, Индия) (78 км)
Погода в Alibag (Maharashtra, Индия) (104 км)
Погода в Harnai (Maharashtra, Индия) (112 км)
Погода в Satara (Maharashtra, Индия) (114 км)
Погода в Mumbai Colaba (Maharashtra, Индия) (116 км)
Погода в Ahmednagar (Maharashtra, Индия) (117 км)
Погода в Mumbai (Maharashtra, Индия) (124 км)
Погода в Jeur (Maharashtra, Индия) (141 км)

Пояснения к столбцам:

Ветер - указаны скорость ветра в м/с - средняя за 10 мин, порывы в срок и между сроками (в фигурных скобках) и направление, откуда дует ветер: С - северный, СВ - северо-восточный, В - восточный, ЮВ - юго-восточный, Ю - южный, ЮЗ - юго-западный, З - западный, СЗ - северо-западный.
Видимость - горизонтальная дальность видимости в метрах или километрах. При видимости от 1 до 10 км при отсутствии осадков обычно наблюдается дымка, при ухудшении видимости до 1 км и менее - туман. В сухую погоду видимость может ухудшаться дымом, пылью или мглою.
Явления - указаны атмосферные явления, наблюдавшиеся в срок или в последний час перед сроком; фигурными скобками обозначены явления, наблюдавшиеся между сроками (за 1-3 часа до срока); квадратными скобками обозначены град или гололедные отложения с указанием их диаметра в мм.
Облачность - указаны через наклонную черту общая и нижняя облачность в баллах и высота нижней границы облаков в метрах; квадратными скобками обозначены формы облаков: Ci - перистые, Cs - перисто-слоистые, Cc - перисто-кучевые, Ac - высококучевые, As - высокослоистые, Sc - слоисто-кучевые, Ns - слоисто-дождевые, Cu - кучевые, Cb - кучево-дождевые. Подробнее классификацию облаков см. в Атласе облаков (PDF).
T - Температура воздуха - температура, измеренная на высоте 2 м над землей.
Td - Температура точки росы - температура, при понижении до которой содержащийся в воздухе водяной пар достигнет насыщения.
f - Относительная влажность воздуха - влажноcть воздуха, измеренная на высоте 2 м над землей.
Te - Эффективная температура - температура, которую ощущает одетый по сезону человек в тени. Характеристика душности погоды. При расчете учитывается влияние влажности воздуха и скорости ветра на теплоощущения человека.
Tes - Эффективная температура на солнце - температура, которую ощущает человек, с поправкой на солнечный нагрев. Характеристика знойности погоды. Зависит от высоты солнца над горизонтом, облачности и скорости ветра. Ночью, в пасмурную погоду, а также при ветре 12 м/с и более поправка равна нулю.
P - Атмосферное давление - приведенное к уровню моря атмосферное давление.
Po - Атмосферное давление - измеренное на уровне метеостанции атмосферное давление.
Tmin - Минимальная температура - минимум температуры воздуха на высоте 2 м над землей.
Tmax - Максимальная температура - максимум температуры воздуха на высоте 2 м над землей.
R - Количество осадков - Количество выпавших осадков за период времени, мм. При наведении курсора мыши на число - период времени, за который выпало указанное количество осадков.
R24 - Количество осадков - Количество выпавших осадков за 24 часа, мм.
S - Снежный покров - Высота снежного покрова, см. При наведении курсора мыши на число - состояние снежного покрова и степень покрытия местности в баллах.